Location: Los Ranchitos
(37.9930°N, 122.5425°W)
Time: 08:34:03
(UTC+00:00)

Cosmos 1238 Rocket - Pass Details

Date: 21 September 2020
Orbit: 374 x 1028 km, 83.0° (Epoch: 28 October)

Event Time Altitude Azimuth Distance (km) Brightness Sun altitude
Rises 11:05:40 0° 356° (N) 3,781 7.4 -33.1°
Reaches altitude 10° 11:08:23 10° 0° (N) 2,803 6.7 -32.7°
Maximum altitude 11:14:50 60° 80° (E) 1,082 4.3 -31.6°
Enters shadow 11:16:35 44° 135° (SE) 1,265 4.6 -31.3°
